Location: Songkhla
(7.2000°N, 100.6000°E)
Time: 20:17:14
(UTC+07:00)

Atlas Centaur 2 - Pass Details

Date: 16 April 2026
Orbit: 456 x 1246 km, 30.4° (Epoch: 20 May)

Event Time Altitude Azimuth Distance (km) Brightness Sun altitude
Rises 19:46:06 0° 312° (NW) 3,111 6.2 -20.3°
Reaches altitude 10° 19:48:24 10° 318° (NW) 2,307 5.3 -20.8°
Maximum altitude 19:53:45 48° 32° (NNE) 1,163 2.7 -22.1°
Enters shadow 19:55:23 39° 72° (ENE) 1,364 2.8 -22.5°
